星链-34572 (STARLINK-34572)

导读

STARLINK-34572是美国太空探索技术公司(SpaceX)星链互联网星座中的一颗低轨卫星,于2025年6月28日发射入轨。该卫星运行在近地点约399公里、远地点约401公里的近地轨道上,轨道倾角约53.16度,每日绕地球约15.5圈,旨在为全球偏远、欠发达地区提供高速低延迟的宽带互联网接入服务。

基本信息
目录编号:
64720
目录名称:
STARLINK-34572
国际标识:
2025-142AA
轨道中心:
EARTH
卫星名称:
星链-34572
卫星全名:
星链-34572 (STARLINK-34572)
卫星状态:
在轨 (已飞行350 天)
发射日期:
2025-06-28 UTC
国别 :
美国 (US)
星等 :
--
轨道信息
数据来源 国际轨道数据 AOE轨道数据
星历时间 2026-06-13T12:14:33+0800
17小时前
查看轨道信息
2026-06-10T01:00:00+0800
4天前
查看轨道信息
半长轴 6950.16km 6950.195km
偏心率 0.0002925 0.0003085
轨道倾角 70.002° 70.002°
近地点辐角 269.752° 263.327°
升交点赤经 73.705° 82.450°
平近点角 90.331° 113.341°
近地点 569.99km 569.913km
远地点 574.056km 574.203km
周期 96.106分钟 96.107分钟
每日圈数 14.983407 14.983295
详细信息
固有亮度:
5
最大亮度:
2.5
卫星平台:
Starlink V1.0
覆盖范围:
全球
运营商:
太空探索技术公司
运营商所在国:
美国
制造商(研发单位):
太空探索技术公司
制造商所在国:
美国
使用方式:
暂无
卫星简介
Starlink 计划是 SpaceX 推出的全球卫星互联网项目,通过发射低轨道卫星,为全球尤其是偏远地区提供高速、低延迟的互联网服务。自 2019 年起,Starlink 已部署数千颗卫星,旨在缩小全球数字鸿沟,推动互联网普及。该项目还为军事、航空等行业提供通信支持,带来广泛经济效益。
2D轨道图
3D轨道图
轨道高度分析图
轨道倾角分析图
轨道综合分析图
查看轨道综合分析图